Regional Weather Roundup
Issued by NWS

Home | Current Version | Previous Version | Graphics & Text | Print | Product List | Glossary On
Versions: 1 2 3 4 5 6 7 8 9 10 11 12 13 14 15 16 17 18 19 20 21 22 23 24 25 26 27 28 29 30 31 32 33 34 35 36 37 38 39 40 41 42 43 44 45 46 47 48 49 50
182
ASUS43 KOAX 062010
RWRNE

WEATHER ROUNDUP FOR NEBRASKA
NATIONAL WEATHER SERVICE OMAHA NE
200 PM CST SAT FEB 06 2016

NOTES: SATELLITE DATA IS BEING USED TO AUGMENT CLOUD COVER ABOVE
       12000 FEET.
       "FAIR" INDICATES FEW OR NO CLOUDS BELOW 12,000 FEET WITH NO
       SIGNIFICANT WEATHER AND/OR OBSTRUCTIONS TO VISIBILITY.

  * THESE STATIONS DO NOT REPORT WEATHER SUCH AS RAIN...SNOW OR FOG.

NEZ001>004-019>022-054>056-062100-
NEBRASKA PANHANDLE

CITY           SKY/WX    TMP DP  RH WIND       PRES   REMARKS
SCOTTSBLUFF    CLOUDY    41  24  51 W24G33    30.05F
ALLIANCE       CLOUDY    36  27  69 W14       30.01F WCI  27
CHADRON        CLOUDY    44  28  53 W13       29.97F
KIMBALL        CLOUDY    40  25  54 W20       30.09F WCI  31
SIDNEY         CLOUDY    40  28  62 W20       30.07F WCI  30
$$

NEZ057>060-069>072-079>082-062100-
SOUTHWEST NEBRASKA

CITY           SKY/WX    TMP DP  RH WIND       PRES   REMARKS
NORTH PLATTE   CLOUDY    36  22  56 W16       30.07F WCI  26
IMPERIAL       CLOUDY    36  22  56 W12       30.10F WCI  28
LEXINGTON      CLOUDY    39  24  54 W10       30.09F WCI  33
MCCOOK         CLOUDY    36  19  50 SW12      30.13F WCI  28
OGALLALA       CLOUDY    31  19  62 W10       30.09F WCI  22
$$

NEZ005>010-023>029-035>040-094-062100-
NORTH CENTRAL NEBRASKA

CITY           SKY/WX    TMP DP  RH WIND       PRES   REMARKS
VALENTINE      MOSUNNY   43  27  53 W15G28    29.94F
AINSWORTH      CLOUDY    48  29  47 W16       29.96F
BROKEN BOW     MOSUNNY   37  25  61 W17       30.03F WCI  27
O`NEILL        CLOUDY    41  28  59 S9        29.97F
ORD            CLOUDY    38  26  62 SW13      30.02F WCI  30
THEDFORD       MOSUNNY   46  29  51 W14       30.01F
$$

NEZ041-046>049-061>064-073>077-083>087-062100-
SOUTH CENTRAL NEBRASKA

CITY           SKY/WX    TMP DP  RH WIND       PRES   REMARKS
GRAND ISLAND   SUNNY     36  23  59 SW17      30.08F WCI  26
AURORA         SUNNY     34  24  67 SW16      30.08F WCI  24
HASTINGS       SUNNY     32  21  64 SW13G20   30.11F WCI  22
HEBRON         SUNNY     34  24  68 SW12      30.17F WCI  25
HOLDREGE       SUNNY     32  21  65 SW14      30.11F WCI  22
YORK           SUNNY     32  25  74 SW18      30.10F WCI  20
$$

NEZ011>018-030>034-042>045-062100-
NORTHEAST NEBRASKA

CITY           SKY/WX    TMP DP  RH WIND       PRES   REMARKS
NORFOLK        CLOUDY    39  24  55 SW8       30.02F WCI  33
ALBION         SUNNY     36  26  67 S7        30.03F WCI  30
BLAIR          SUNNY     38  29  68 S14       30.10F WCI  30
COLUMBUS *     CLOUDY    39  21  48 SW18      30.08F WCI  30
FREMONT        SUNNY     37  26  64 S12       30.10F WCI  30
TEKAMAH        SUNNY     34  28  79 S15       30.09F WCI  24
WAYNE          MOSUNNY   37  26  64 SW15      30.02F WCI  28
$$

NEZ050>053-065>068-078-088>093-062100-
SOUTHEAST NEBRASKA

CITY           SKY/WX    TMP DP  RH WIND       PRES   REMARKS
LINCOLN        SUNNY     37  26  64 SW16      30.15F WCI  28
OMAHA EPPLEY   MOSUNNY   40  26  57 S15       30.13F WCI  32
BEATRICE       SUNNY     40  31  68 SW16      30.17F WCI  32
FALLS CITY     SUNNY     47  31  53 SW14      30.19F
NEBRASKA CITY  SUNNY     38  30  72 SW14      30.17F WCI  30
PLATTSMOUTH    SUNNY     37  28  72 S14       30.15F WCI  28
$$

NEZ044-045-051>053-067-062100-
OMAHA AREA

CITY           SKY/WX    TMP DP  RH WIND       PRES   REMARKS
OMAHA EPPLEY   MOSUNNY   40  26  57 S15       30.13F WCI  32
BLAIR          SUNNY     38  29  68 S14       30.10F WCI  30
FREMONT        SUNNY     37  26  64 S12       30.10F WCI  30
MILLARD        SUNNY     40  27  60 S8        30.13F WCI  34
OFFUTT AFB     SUNNY     39  27  61 S13       30.13F WCI  31
PLATTSMOUTH    SUNNY     37  28  72 S14       30.15F WCI  28
WAHOO          FAIR      38  27  63 SW15G22   30.11F WCI  30
$$




USA.gov is the U.S. government's official web portal to all federal, state and local government web resources and services.